Location: La Bastide
(43.1661°N, 1.2755°E)
Time: 14:53:21
(UTC+00:00)

IRS-1C - Pass Details

Date: 13 December 2025
Orbit: 813 x 814 km, 99.0° (Epoch: 16 January)

Event Time Altitude Azimuth Distance (km) Brightness Sun altitude
Rises 17:45:08 0° 171° (S) 3,324 7.4 -14.9°
Reaches altitude 10° 17:47:28 10° 174° (S) 2,396 6.7 -15.3°
Maximum altitude 17:52:45 68° 257° (WSW) 876 4.5 -16.2°
Drops below altitude 10° 17:58:04 10° 341° (NNW) 2,412 6.6 -17.2°
Sets 18:00:26 0° 344° (NNW) 3,348 7.3 -17.6°
